GFSSE_500_spd_159.txt.gz
Wind_Speed
17 19 17 16 14 12 11 7 10 11 9 9 6 6 6 7 8 9 9 10 7 9 10 12 12 13 14 14 12 12 11 11 11 10 8 7 7 6 5 5 4 3 2
16 21 15 14 12 10 9 9 5 12 11 11 9 8 9 10 10 10 9 8 8 9 11 11 14 15 14 13 11 12 11 9 8 9 8 7 7 7 6 6 5 3 3
13 16 15 11 11 9 9 9 7 11 14 13 10 10 9 11 11 10 10 9 10 10 12 13 14 14 12 11 12 11 10 10 11 10 10 10 10 10 10 8 7 6 4
14 11 9 12 11 9 10 12 8 5 12 14 11 10 11 11 11 10 11 10 10 12 12 13 11 12 13 11 11 12 13 13 13 13 11 14 14 13 12 11 9 7 5
9 12 11 13 12 9 11 12 9 9 11 13 12 12 12 13 13 12 12 11 12 13 12 11 12 14 14 13 13 14 15 16 16 14 15 15 15 15 14 13 11 9 10
10 10 10 12 12 10 10 12 10 11 14 14 13 14 14 13 13 14 13 13 13 14 12 12 15 15 14 15 15 16 17 17 17 15 17 17 15 15 15 16 14 13 9
8 8 8 11 13 12 13 11 12 9 16 18 15 16 15 14 14 16 15 15 14 14 13 16 16 16 17 17 17 17 18 19 13 17 17 16 15 14 14 16 15 13 9
7 7 9 9 13 12 10 12 12 12 18 21 19 20 17 16 15 14 16 16 16 15 17 17 18 19 20 19 20 20 19 20 17 18 18 16 14 13 13 13 16 17 16
7 5 6 9 13 12 10 9 11 17 19 22 22 17 16 14 12 19 20 20 18 17 20 19 19 20 20 21 21 22 21 22 21 22 20 17 16 14 13 13 15 17 18
9 5 6 9 10 11 12 12 17 15 17 20 22 13 17 19 19 21 22 21 19 21 20 19 19 19 19 18 21 21 19 21 21 20 18 19 18 16 15 15 15 15 16
8 7 14 9 9 5 7 14 14 15 15 20 20 23 22 19 22 24 22 21 20 21 20 19 18 18 15 17 19 18 18 21 21 25 22 21 21 19 19 17 16 15 16
8 7 6 7 8 6 7 3 13 19 21 24 21 20 21 19 21 22 22 20 21 22 20 19 18 16 14 14 17 17 13 19 19 22 21 23 22 22 22 19 17 17 17
8 8 8 10 11 3 12 10 14 18 13 16 16 21 20 21 20 21 21 19 21 22 19 19 17 15 14 13 15 15 14 15 17 19 21 21 23 24 21 20 20 19 19
9 9 9 8 11 13 19 7 17 19 16 12 17 20 21 22 21 21 19 18 19 21 20 17 16 14 13 13 12 12 13 15 16 17 19 19 19 20 21 21 21 21 21
10 10 10 8 8 11 9 11 9 13 15 16 18 21 19 19 18 19 18 18 17 20 19 17 14 13 13 12 10 9 9 13 14 16 17 17 19 21 21 19 19 20 21
12 8 10 11 10 10 12 8 8 8 11 11 12 15 16 15 15 17 14 17 17 20 18 16 14 14 13 12 10 7 7 10 11 13 14 14 16 16 16 17 16 17 18
9 7 9 11 11 11 11 10 9 7 6 7 9 11 13 13 15 15 13 16 18 22 19 17 15 14 12 11 9 8 7 7 9 11 12 11 12 12 13 13 13 14 14
7 7 10 11 12 12 12 11 10 10 9 8 9 11 14 15 15 17 17 15 21 22 21 18 15 13 11 10 8 8 7 6 7 9 10 9 8 10 10 9 10 10 10
8 9 10 12 12 13 13 14 14 13 11 10 10 12 13 14 16 16 16 18 22 21 20 18 16 14 11 10 8 6 6 5 6 7 8 7 6 8 8 7 7 6 8
8 8 9 13 16 18 17 16 16 15 13 12 12 15 14 14 15 14 14 16 20 21 19 17 16 13 12 9 7 6 4 3 4 4 5 5 4 6 6 6 6 4 5
9 10 9 10 14 18 19 19 19 17 15 15 15 18 17 15 15 14 14 15 17 19 19 17 16 14 12 10 8 5 2 0 4 1 3 3 4 6 4 5 5 3 4
10 11 9 9 14 17 21 23 21 19 19 17 16 17 17 15 14 14 14 15 16 18 18 17 16 14 12 9 6 5 2 3 8 6 1 2 6 6 4 5 5 4 3
9 11 11 10 11 15 19 20 21 21 20 19 17 17 17 15 15 15 14 16 17 18 19 18 16 14 6 10 7 6 3 8 4 2 3 2 4 3 3 3 3 4 3
12 10 11 10 13 14 17 17 18 22 21 20 19 18 19 17 15 16 15 16 17 19 19 18 17 15 15 11 9 7 6 5 5 2 3 8 2 4 1 1 1 2 3
14 12 13 11 14 14 18 19 19 21 22 20 18 18 19 20 17 17 17 16 18 18 19 18 16 16 13 11 11 9 9 6 3 3 8 14 3 5 6 6 5 4 4
14 15 14 15 16 15 18 20 19 18 19 18 18 20 20 20 20 19 17 17 18 19 18 17 16 15 14 12 12 11 10 8 2 3 5 1 4 14 5 8 8 7 6

GFSSE_500_spd_162.txt.gz
Wind_Speed
13 16 17 17 14 12 11 8 6 9 5 5 4 4 5 7 8 8 10 12 13 13 14 14 15 15 13 16 16 13 11 11 11 12 12 11 10 9 8 8 6 6 5
12 14 17 16 14 13 10 8 6 11 8 7 5 6 7 8 8 9 10 12 12 13 15 15 15 16 16 16 13 11 12 12 12 12 12 11 12 11 10 8 7 6 5
12 12 16 15 14 12 9 10 5 10 10 10 7 8 8 9 9 10 11 13 14 15 15 15 15 16 16 12 11 11 14 14 12 13 14 13 13 12 10 10 9 9 8
9 15 17 15 12 10 10 11 7 2 8 9 9 10 9 9 9 10 12 14 15 15 14 15 16 14 12 11 12 15 14 15 14 16 13 14 14 14 14 14 14 13 11
13 10 13 11 8 7 10 11 9 5 9 13 10 11 10 10 10 12 14 14 15 15 15 15 14 12 12 14 14 15 16 15 16 13 13 14 13 15 16 14 14 12 10
10 12 10 11 11 9 7 9 9 10 9 12 12 12 11 11 11 14 15 15 16 15 15 16 13 14 15 15 15 16 16 18 16 14 15 13 13 15 17 18 14 12 10
5 8 10 11 11 11 8 8 8 7 11 11 13 13 14 14 13 15 17 15 15 15 18 16 16 17 16 17 17 18 18 19 11 14 14 15 15 17 18 17 17 15 13
7 7 6 10 12 13 11 11 10 9 9 13 14 16 17 16 15 17 15 17 17 20 19 17 18 19 19 20 20 21 21 20 17 18 20 19 18 17 16 16 17 17 16
7 8 9 10 14 12 9 11 8 9 10 14 16 17 17 16 13 16 21 19 20 22 20 19 19 20 20 19 21 20 21 18 19 24 21 20 19 17 17 17 17 17 17
6 6 5 9 13 13 12 12 10 10 14 15 16 14 11 11 21 21 22 21 25 22 20 20 19 19 17 17 20 20 22 23 23 23 22 21 21 20 19 18 18 18 19
5 6 7 4 2 4 9 12 13 12 14 14 21 16 20 24 26 24 23 23 25 22 20 20 18 16 16 17 18 18 19 19 26 25 24 23 22 22 20 19 19 19 19
7 6 3 5 3 2 10 3 15 10 13 18 17 23 23 24 26 25 23 25 24 22 20 19 17 15 14 13 20 18 14 22 23 22 24 23 23 23 23 22 21 20 20
10 7 17 5 6 7 2 1 11 15 22 25 24 23 24 24 24 24 23 25 23 22 20 19 17 15 10 7 17 17 17 18 19 19 21 22 23 24 24 23 22 22 21
4 8 10 6 9 5 17 7 12 15 15 13 15 21 25 23 22 20 22 24 23 21 18 15 16 15 11 7 20 18 11 13 17 19 20 22 22 22 23 23 23 22 22
8 5 10 9 8 5 20 20 14 11 8 12 20 22 21 22 22 20 20 22 20 19 18 16 14 14 13 10 8 8 10 11 13 16 17 19 18 19 20 21 21 22 22
10 9 8 8 13 9 2 3 5 9 9 12 17 20 21 21 20 21 22 22 20 14 15 15 13 11 10 9 7 8 8 10 10 12 16 14 15 17 17 18 18 18 18
10 6 7 6 7 14 6 10 5 9 11 11 14 16 11 17 18 24 22 21 22 19 16 13 11 10 9 8 8 8 7 8 8 9 9 11 13 13 13 13 14 14 15
8 8 8 8 7 6 10 9 8 10 9 10 11 14 9 13 32 7 16 18 23 17 15 13 12 8 9 7 6 5 4 6 7 7 6 9 8 10 9 9 10 10 12
7 9 11 11 11 11 10 11 8 17 10 9 10 15 16 18 13 20 34 22 26 19 19 16 14 12 5 6 5 4 4 3 5 5 7 5 5 7 8 6 7 6 8
6 5 9 9 13 11 13 14 15 11 11 12 8 6 11 14 13 6 24 23 24 17 16 11 11 12 8 6 4 3 3 2 4 4 4 4 3 6 4 5 5 4 6
6 6 5 6 10 13 15 14 14 13 10 11 13 15 15 16 14 11 9 20 19 17 16 14 9 7 9 9 7 3 4 2 3 3 10 4 5 3 4 4 3 3 4
3 5 4 5 7 11 15 16 15 14 13 11 10 12 13 17 17 14 15 15 22 24 19 12 10 8 9 5 3 4 3 4 4 3 4 4 6 4 3 3 3 4 4
4 6 6 6 7 11 14 15 15 16 15 14 13 14 15 16 16 18 19 22 24 24 21 20 15 11 7 8 4 5 5 10 10 9 7 2 6 3 6 2 3 5 6
9 12 6 7 8 10 13 15 16 18 17 16 15 15 15 17 15 16 17 19 22 23 24 22 16 12 11 15 6 5 5 9 10 3 6 4 5 4 2 4 3 2 3
13 13 3 9 8 10 13 16 17 17 18 18 17 17 15 16 15 16 15 17 19 20 22 19 16 14 14 11 12 5 17 2 7 8 3 1 6 6 4 6 3 8 3
21 12 16 11 7 12 12 16 16 17 20 19 18 17 17 17 16 15 15 14 17 20 20 19 18 14 12 11 10 9 10 8 7 1 9 8 11 12 5 3 5 8 9

GFSSE_500_spd_165.txt.gz
Wind_Speed
10 15 15 14 12 9 9 7 6 6 3 4 4 4 5 7 9 12 12 15 14 15 14 12 13 14 14 15 13 12 13 10 9 10 12 13 12 11 10 10 10 9 7
10 14 15 15 13 12 11 9 8 7 6 5 4 5 6 7 9 10 12 13 13 14 14 14 15 16 16 14 13 11 11 10 10 12 14 12 11 11 11 11 9 8 8
10 11 20 15 13 11 9 9 6 6 7 4 5 6 6 8 9 10 11 13 13 14 14 16 16 16 14 12 12 11 13 13 12 13 14 11 13 12 11 11 9 8 7
9 6 13 14 13 12 11 10 6 3 7 7 6 7 7 6 7 10 11 12 13 14 16 16 16 13 12 12 12 13 14 14 14 15 12 11 13 13 11 11 11 10 10
10 4 17 14 12 10 10 9 8 1 5 8 8 9 8 7 7 9 12 12 14 14 16 14 14 12 12 13 14 15 15 16 17 13 10 12 13 15 15 11 10 9 7
10 7 5 13 10 8 8 7 5 4 1 8 8 10 9 8 8 9 13 13 13 14 14 13 13 11 14 16 16 14 15 16 14 11 10 14 15 16 17 16 14 11 10
7 12 12 12 13 11 8 8 6 5 8 8 8 8 9 9 9 11 13 10 13 16 13 14 14 15 17 18 17 12 20 18 13 15 15 15 15 17 18 18 17 15 15
9 10 11 13 13 12 11 8 7 7 9 9 11 11 11 11 11 13 12 13 14 15 14 16 16 17 19 20 16 18 19 19 15 20 17 16 17 18 19 20 19 18 17
8 12 10 9 12 13 12 10 9 10 8 9 12 14 15 16 14 11 14 15 17 15 16 17 15 18 19 18 16 21 22 18 21 23 19 18 19 20 22 22 21 20 20
8 5 7 8 9 10 10 8 8 7 4 4 9 12 12 14 14 17 16 17 18 16 18 16 16 17 17 18 18 20 22 20 22 22 20 21 22 23 25 24 23 22 21
8 9 10 7 7 5 4 5 8 11 5 8 12 13 8 15 23 22 19 22 19 18 17 16 17 16 15 15 17 22 18 19 22 23 24 23 25 26 25 25 24 23 22
3 4 8 10 8 2 4 4 8 13 11 14 15 18 15 24 24 23 22 23 20 17 17 17 17 14 10 14 18 19 19 19 28 23 25 24 25 27 26 27 26 25 25
4 7 12 5 8 7 6 5 5 11 5 12 14 23 24 22 25 24 23 21 19 15 15 15 17 14 12 6 15 17 21 23 29 22 22 23 25 26 26 27 26 26 25
5 3 1 3 6 7 11 11 15 12 12 17 18 23 14 26 24 25 26 24 21 16 14 14 12 17 13 7 19 19 20 22 23 20 21 22 22 23 24 25 25 25 25
2 3 3 3 8 16 19 17 17 17 15 9 22 22 30 26 25 24 28 25 22 18 14 13 11 13 12 7 10 14 16 19 22 20 19 18 18 20 20 21 22 23 22
6 5 4 3 6 2 6 8 12 14 14 19 23 29 27 25 24 25 27 24 22 18 15 13 11 12 14 8 9 14 14 17 14 16 16 14 15 16 16 18 18 18 19
7 7 5 5 5 6 6 10 10 11 12 14 17 25 27 24 23 23 25 22 23 23 19 13 11 10 10 10 12 8 9 9 11 10 14 11 14 12 12 12 14 15 17
3 3 6 9 9 10 10 8 12 9 8 12 14 9 11 19 20 21 23 25 23 18 15 13 9 9 7 6 9 7 5 3 5 9 7 12 12 9 9 7 9 12 15
6 6 7 9 11 11 8 8 8 14 11 12 13 12 11 18 21 24 23 19 18 16 12 11 8 11 5 6 7 4 2 1 3 5 3 8 15 10 7 5 6 9 13
5 3 5 8 12 13 13 12 16 15 13 15 15 17 10 16 13 14 30 25 19 17 12 10 7 8 8 10 7 7 1 2 2 1 3 4 7 15 11 6 3 4 9
3 3 6 7 9 7 10 11 11 11 11 9 10 11 16 14 8 15 21 20 20 12 15 14 12 8 7 4 5 2 2 3 5 4 0 2 1 4 6 10 6 4 6
6 5 5 4 5 8 8 13 14 13 12 10 8 7 10 11 12 15 21 17 19 18 16 13 8 7 8 6 6 4 3 5 8 9 5 2 5 4 4 2 6 7 3
6 6 5 5 6 7 8 10 12 13 12 12 11 9 9 12 16 13 19 18 19 18 16 9 10 9 8 8 7 4 7 8 7 7 4 5 4 2 4 2 3 4 9
8 7 4 6 6 7 9 11 12 12 13 11 11 11 11 9 8 10 12 14 15 18 16 10 14 11 11 11 6 6 4 7 4 4 5 4 2 4 5 5 8 2 5
10 9 11 9 6 7 8 9 11 13 16 15 14 14 12 13 12 11 12 13 15 17 18 19 11 11 12 11 8 14 10 3 1 6 4 1 3 7 9 10 7 4 3
12 11 7 11 10 11 8 9 12 13 15 16 15 15 14 15 16 14 15 14 14 18 19 20 17 15 13 11 11 8 6 5 3 3 5 3 5 7 15 9 10 8 5

GFSSE_500_spd_168.txt.gz
Wind_Speed
13 13 12 11 10 8 6 5 3 4 2 4 3 3 5 7 8 9 10 10 11 13 11 11 12 11 10 11 11 11 12 13 12 12 12 11 11 11 10 9 7 8 7
7 10 13 13 11 9 6 5 2 4 3 4 3 4 6 7 7 8 10 10 12 11 10 12 10 10 11 12 11 11 11 11 11 12 13 12 12 12 9 8 9 8 8
7 6 12 14 12 10 7 4 2 3 5 2 4 5 6 6 6 8 9 11 12 10 11 11 12 11 13 11 11 11 11 12 13 12 14 13 13 11 10 10 10 9 9
6 4 7 17 13 10 8 4 2 4 7 5 6 6 7 5 6 7 9 9 9 11 11 11 11 12 11 12 12 12 13 13 13 15 14 12 12 10 8 9 8 8 10
9 5 3 11 12 10 7 3 5 3 7 8 8 8 8 6 7 7 9 9 10 12 11 11 11 12 12 13 12 13 12 14 15 12 10 10 11 12 11 9 8 8 9
9 8 5 15 11 9 4 4 6 1 4 10 10 10 9 6 7 8 10 10 11 12 11 11 11 13 14 13 13 12 14 13 12 11 7 10 12 14 14 13 13 12 10
10 8 4 16 13 8 4 4 6 5 7 12 12 10 9 6 7 9 11 12 13 12 12 11 12 15 14 15 13 16 14 12 10 9 10 13 14 16 17 17 16 15 12
9 10 11 10 9 8 6 5 7 7 10 10 9 9 9 7 8 10 10 12 14 13 12 10 14 16 14 12 12 16 16 12 11 12 15 17 18 19 19 19 17 17 17
6 6 5 8 9 8 7 7 7 9 9 9 10 9 11 10 10 12 10 13 14 14 12 11 16 15 12 14 14 16 17 13 14 18 19 20 21 21 21 20 19 19 19
3 4 5 3 6 7 7 7 8 8 7 7 9 11 10 15 16 12 13 15 14 14 12 14 16 16 17 17 16 18 15 15 17 21 22 23 23 23 22 22 21 21 21
5 5 5 6 6 7 6 9 13 12 8 8 9 12 10 10 19 15 14 16 16 14 13 15 15 16 15 16 19 16 16 16 19 23 24 26 25 25 24 23 23 22 23
7 9 11 8 6 7 10 12 11 10 11 10 10 16 13 13 17 17 16 18 16 14 13 16 13 14 14 16 16 15 16 16 20 24 27 25 25 26 27 26 26 25 25
8 9 10 11 4 2 6 14 12 13 12 15 16 18 16 19 22 21 19 18 15 16 15 13 16 13 11 14 15 15 16 16 18 25 24 23 24 26 26 27 28 28 28
11 10 8 10 7 9 4 8 10 15 11 15 17 20 20 26 26 22 21 20 17 16 16 10 15 16 15 10 16 14 14 14 16 20 21 20 22 23 23 24 25 25 25
6 7 7 9 11 17 17 16 14 15 18 8 17 24 23 22 22 21 19 19 16 10 13 11 13 12 13 10 14 14 10 10 13 13 19 17 19 20 20 20 20 21 21
6 7 7 8 7 5 8 13 13 9 5 5 19 16 22 20 19 18 19 17 14 11 11 13 13 14 14 10 11 12 10 10 10 12 16 14 16 16 17 17 17 17 17
7 7 6 6 6 5 12 11 10 10 10 11 14 15 19 18 17 18 20 18 16 11 9 9 9 13 11 10 7 10 10 9 10 12 11 10 9 11 12 14 16 16 16
9 3 4 6 6 7 14 9 11 11 14 16 16 20 17 19 17 18 22 20 16 11 6 6 8 10 12 11 5 10 9 8 9 10 11 7 4 3 6 10 12 13 14
6 5 4 6 7 6 7 7 7 11 14 14 13 13 13 21 21 22 24 20 16 12 9 9 10 7 6 6 6 10 10 8 10 9 6 3 2 3 4 3 7 10 11
2 4 6 7 6 7 8 10 11 11 12 15 15 14 13 19 23 24 24 22 19 15 13 9 10 6 5 4 7 9 9 9 8 6 3 1 3 3 4 4 4 6 7
3 4 5 8 8 9 10 12 11 10 11 12 13 17 12 17 15 27 28 19 20 18 15 11 9 6 4 5 10 8 8 7 7 6 2 1 1 2 2 5 5 6 6
3 8 7 8 10 12 13 14 16 14 13 16 16 14 12 11 11 16 28 28 23 21 17 12 8 6 3 2 5 4 9 6 9 3 3 3 2 2 1 3 4 5 6
5 7 6 9 10 12 12 16 16 16 17 15 15 14 13 12 14 22 21 21 24 21 17 16 10 6 4 1 1 2 3 4 6 1 6 5 6 4 4 3 4 2 4
3 5 3 5 7 9 13 18 19 17 19 16 16 14 17 14 15 15 19 16 20 21 17 15 9 8 4 2 5 1 3 1 3 6 2 5 3 7 5 4 7 4 4
6 8 8 7 6 6 7 13 15 15 18 17 15 15 17 19 16 18 19 18 20 21 23 21 10 12 7 7 8 3 9 3 2 3 1 6 3 5 7 7 7 4 6
3 7 8 6 8 7 7 9 13 15 16 17 16 15 15 20 23 20 17 17 18 19 20 21 18 12 9 9 9 4 5 3 4 3 5 5 1 3 3 5 7 7 9